Zurück zum Katalog

OSCAR 27

AktivAmateurfunkPO
NORAD 18361·PAYLOAD·🇺🇸 United States

Gestartet Sep 16, 1987 von Vandenberg Space Force Base

Loading…

Nächste Überflüge (nächste 24 Stunden)

TLE

AktuellSource: Space-Track

Epoche: Sep 14, 2026, 11:37 UTC

1 18361U 87080A   26257.48456727  .00000072  00000-0  10355-3 0  9993
2 18361  90.3618  89.4310 0104528 153.7999 206.8491 13.44953919912635

Verfolge OSCAR 27 in Echtzeit mit AllMySat

Download on the App Store